ASH4031 KIAH-KTUS

Flight info

Callsign ASH4031
Flight time 2h 21m
Altitude 30000
Route PITZZ5 CRGER DCT EWM ZONNA2
Aircraft E175/M-SDE3GILORVW/S

Departure

Time 2026-04-25 07:09
Airport George Bush Intercontinental Airport (KIAH)

Arrival

Time 2026-04-25 09:31
Airport Tucson International Airport (KTUS)
Time Latitude Longitude Altitude Speed Heading
2026-04-25 06:41 29.98441 -95.34406 98 ft 0 kts
2026-04-25 06:57 29.98442 -95.34406 98 ft 0 kts
2026-04-25 06:57 29.98437 -95.34407 98 ft 2 kts
2026-04-25 06:57 29.98422 -95.34408 98 ft 2 kts
2026-04-25 06:58 29.98408 -95.34407 98 ft 2 kts 346°
2026-04-25 06:58 29.98394 -95.34400 98 ft 2 kts 324°
2026-04-25 06:58 29.98384 -95.34389 98 ft 2 kts 303°
2026-04-25 06:58 29.98378 -95.34373 98 ft 2 kts 282°
2026-04-25 06:59 29.98377 -95.34356 98 ft 2 kts 269°
2026-04-25 06:59 29.98377 -95.34348 98 ft 0 kts 270°
2026-04-25 07:01 29.98377 -95.34350 98 ft 0 kts 270°
2026-04-25 07:02 29.98377 -95.34362 98 ft 3 kts 270°
2026-04-25 07:02 29.98377 -95.34400 98 ft 6 kts 265°
2026-04-25 07:02 29.98353 -95.34454 98 ft 9 kts 232°
2026-04-25 07:02 29.98326 -95.34531 98 ft 12 kts 267°
2026-04-25 07:03 29.98324 -95.34652 95 ft 17 kts 270°
2026-04-25 07:03 29.98324 -95.34796 95 ft 18 kts 270°
2026-04-25 07:03 29.98324 -95.34946 95 ft 19 kts 270°
2026-04-25 07:03 29.98324 -95.35095 95 ft 15 kts 270°
2026-04-25 07:04 29.98340 -95.35173 95 ft 9 kts 322°
2026-04-25 07:04 29.98403 -95.35215 95 ft 12 kts 331°
2026-04-25 07:04 29.98486 -95.35267 95 ft 15 kts 332°
2026-04-25 07:04 29.98583 -95.35327 95 ft 16 kts 332°
2026-04-25 07:05 29.98684 -95.35388 95 ft 16 kts 332°
2026-04-25 07:05 29.98791 -95.35455 95 ft 17 kts 332°
2026-04-25 07:05 29.98901 -95.35522 95 ft 18 kts 332°
2026-04-25 07:05 29.99017 -95.35592 96 ft 18 kts 332°
2026-04-25 07:06 29.99089 -95.35654 97 ft 12 kts 283°
2026-04-25 07:06 29.99095 -95.35758 97 ft 13 kts 273°
2026-04-25 07:06 29.99098 -95.35861 98 ft 12 kts 266°
2026-04-25 07:06 29.99074 -95.35964 98 ft 13 kts 244°
2026-04-25 07:07 29.99023 -95.36041 98 ft 10 kts 190°
2026-04-25 07:07 29.98949 -95.36008 97 ft 12 kts 153°
2026-04-25 07:07 29.98872 -95.35969 96 ft 9 kts 180°
2026-04-25 07:07 29.98827 -95.36021 96 ft 10 kts 243°
2026-04-25 07:08 29.98795 -95.36089 97 ft 9 kts 239°
2026-04-25 07:08 29.98745 -95.36119 97 ft 6 kts 159°
2026-04-25 07:08 29.98713 -95.36098 96 ft 7 kts 152°
2026-04-25 07:08 29.98503 -95.35970 95 ft 66 kts 152°
2026-04-25 07:09 29.97915 -95.35609 95 ft 122 kts 152°
2026-04-25 07:09 29.97016 -95.35056 117 ft 163 kts 153°
2026-04-25 07:09 29.95998 -95.34412 515 ft 177 kts 152°
2026-04-25 07:09 29.94804 -95.34038 1078 ft 181 kts 187°
2026-04-25 07:10 29.93697 -95.34628 1759 ft 186 kts 223°
2026-04-25 07:10 29.92985 -95.35962 2243 ft 208 kts 245°
2026-04-25 07:10 29.92337 -95.37487 2802 ft 222 kts 238°
2026-04-25 07:10 29.91473 -95.39007 3472 ft 231 kts 231°
2026-04-25 07:11 29.90424 -95.40494 3894 ft 253 kts 229°
2026-04-25 07:11 29.89222 -95.42069 4439 ft 268 kts 228°
2026-04-25 07:11 29.88105 -95.43761 4909 ft 267 kts 240°
2026-04-25 07:11 29.87186 -95.45641 4974 ft 270 kts 241°
2026-04-25 07:12 29.86238 -95.47557 5356 ft 282 kts 240°
2026-04-25 07:12 29.84310 -95.51493 6717 ft 282 kts 243°
2026-04-25 07:12 29.83369 -95.53432 7429 ft 280 kts 242°
2026-04-25 07:13 29.82746 -95.55517 8094 ft 278 kts 269°
2026-04-25 07:13 29.83179 -95.57654 8701 ft 280 kts 296°
2026-04-25 07:13 29.84111 -95.59624 9373 ft 281 kts 298°
2026-04-25 07:13 29.85058 -95.61572 10002 ft 283 kts 298°
2026-04-25 07:14 29.86035 -95.63563 10569 ft 287 kts 298°
2026-04-25 07:14 29.87023 -95.65568 11119 ft 294 kts 297°
2026-04-25 07:14 29.88039 -95.67627 11592 ft 303 kts 297°
2026-04-25 07:14 29.89100 -95.69778 12059 ft 312 kts 297°
2026-04-25 07:15 29.90178 -95.71960 12570 ft 319 kts 297°
2026-04-25 07:15 29.91285 -95.74203 13222 ft 322 kts 297°
2026-04-25 07:15 29.92383 -95.76430 13903 ft 324 kts 297°
2026-04-25 07:15 29.93499 -95.78694 14634 ft 324 kts 297°
2026-04-25 07:16 29.94599 -95.80928 15317 ft 325 kts 297°
2026-04-25 07:16 29.95720 -95.83205 15975 ft 326 kts 297°
2026-04-25 07:16 29.96829 -95.85458 16578 ft 329 kts 298°
2026-04-25 07:16 29.97963 -95.87764 17205 ft 330 kts 298°
2026-04-25 07:17 29.99087 -95.90051 17774 ft 332 kts 298°
2026-04-25 07:17 30.00226 -95.92369 18344 ft 333 kts 298°
2026-04-25 07:17 30.01369 -95.94698 18899 ft 335 kts 298°
2026-04-25 07:17 30.02510 -95.97022 19433 ft 337 kts 298°
2026-04-25 07:18 30.03656 -95.99360 19951 ft 338 kts 298°
2026-04-25 07:18 30.04824 -96.01744 20459 ft 340 kts 298°
2026-04-25 07:18 30.05977 -96.04098 20933 ft 342 kts 298°
2026-04-25 07:18 30.07022 -96.06548 21394 ft 343 kts 285°
2026-04-25 07:19 30.07514 -96.09267 21858 ft 344 kts 281°
2026-04-25 07:19 30.07938 -96.11956 22297 ft 346 kts 281°
2026-04-25 07:19 30.08364 -96.14689 22743 ft 348 kts 281°
2026-04-25 07:19 30.08793 -96.17455 23199 ft 349 kts 281°
2026-04-25 07:20 30.09213 -96.20174 23644 ft 350 kts 281°
2026-04-25 07:20 30.09643 -96.22960 24094 ft 351 kts 281°
2026-04-25 07:20 30.10068 -96.25717 24526 ft 351 kts 281°
2026-04-25 07:20 30.10494 -96.28484 24952 ft 352 kts 281°
2026-04-25 07:21 30.10924 -96.31279 25397 ft 353 kts 281°
2026-04-25 07:21 30.11346 -96.34030 25792 ft 354 kts 281°
2026-04-25 07:21 30.11776 -96.36832 26195 ft 354 kts 281°
2026-04-25 07:21 30.12205 -96.39638 26556 ft 356 kts 281°
2026-04-25 07:22 30.12633 -96.42439 26908 ft 358 kts 281°
2026-04-25 07:22 30.13066 -96.45275 27247 ft 359 kts 281°
2026-04-25 07:22 30.13496 -96.48101 27581 ft 361 kts 281°
2026-04-25 07:22 30.13931 -96.50961 27952 ft 361 kts 281°
2026-04-25 07:23 30.14367 -96.53831 28301 ft 362 kts 281°
2026-04-25 07:23 30.14801 -96.56693 28643 ft 363 kts 281°
2026-04-25 07:23 30.15231 -96.59533 28970 ft 364 kts 281°
2026-04-25 07:23 30.15670 -96.62434 29265 ft 365 kts 281°
2026-04-25 07:24 30.16102 -96.65297 29579 ft 366 kts 281°
2026-04-25 07:24 30.16541 -96.68210 29873 ft 364 kts 281°
2026-04-25 07:24 30.17418 -96.74037 29952 ft 377 kts 280°
2026-04-25 07:25 30.18326 -96.80097 29955 ft 393 kts 281°
2026-04-25 07:25 30.19262 -96.86360 29958 ft 398 kts 280°
2026-04-25 07:26 30.20195 -96.92628 29961 ft 395 kts 281°
2026-04-25 07:26 30.21117 -96.98843 29958 ft 396 kts 281°
2026-04-25 07:27 30.22047 -97.05128 29959 ft 395 kts 281°
2026-04-25 07:27 30.22976 -97.11371 29950 ft 397 kts 281°
2026-04-25 07:28 30.23910 -97.17633 29948 ft 397 kts 281°
2026-04-25 07:28 30.24836 -97.23862 29939 ft 395 kts 281°
2026-04-25 07:29 30.25762 -97.30112 29934 ft 397 kts 280°
2026-04-25 07:29 30.26689 -97.36389 29935 ft 397 kts 280°
2026-04-25 07:30 30.27609 -97.42648 29936 ft 396 kts 281°
2026-04-25 07:30 30.28528 -97.48913 29937 ft 395 kts 281°
2026-04-25 07:31 30.29443 -97.55177 29932 ft 396 kts 280°
2026-04-25 07:31 30.30359 -97.61461 29931 ft 397 kts 281°
2026-04-25 07:32 30.31271 -97.67753 29950 ft 397 kts 280°
2026-04-25 07:32 30.32225 -97.74003 29947 ft 396 kts 284°
2026-04-25 07:33 30.33568 -97.80148 29950 ft 396 kts 284°
2026-04-25 07:33 30.34877 -97.86307 29952 ft 396 kts 284°
2026-04-25 07:34 30.36185 -97.92499 29964 ft 396 kts 284°
2026-04-25 07:34 30.37478 -97.98639 29965 ft 396 kts 284°
2026-04-25 07:35 30.38779 -98.04830 29966 ft 394 kts 284°
2026-04-25 07:35 30.40072 -98.10996 29962 ft 396 kts 284°
2026-04-25 07:36 30.41356 -98.17136 29949 ft 395 kts 284°
2026-04-25 07:36 30.42645 -98.23316 29946 ft 396 kts 284°
2026-04-25 07:37 30.43928 -98.29488 29946 ft 395 kts 284°
2026-04-25 07:37 30.45225 -98.35654 29946 ft 395 kts 285°
2026-04-25 07:38 30.46599 -98.41795 29951 ft 396 kts 285°
2026-04-25 07:38 30.47975 -98.47976 29945 ft 394 kts 284°
2026-04-25 07:39 30.49333 -98.54095 29945 ft 396 kts 284°
2026-04-25 07:39 30.50692 -98.60230 29940 ft 395 kts 285°
2026-04-25 07:40 30.52053 -98.66397 29951 ft 395 kts 284°
2026-04-25 07:40 30.53410 -98.72554 29959 ft 395 kts 284°
2026-04-25 07:41 30.54768 -98.78732 29963 ft 395 kts 284°
2026-04-25 07:41 30.56113 -98.84862 29959 ft 394 kts 284°
2026-04-25 07:42 30.57468 -98.91058 29969 ft 395 kts 284°
2026-04-25 07:42 30.58810 -98.97205 29962 ft 395 kts 284°
2026-04-25 07:43 30.60154 -99.03382 29971 ft 397 kts 284°
2026-04-25 07:43 30.61503 -99.09595 29970 ft 396 kts 284°
2026-04-25 07:44 30.62843 -99.15780 29976 ft 396 kts 284°
2026-04-25 07:44 30.64185 -99.21989 29973 ft 396 kts 284°
2026-04-25 07:45 30.65512 -99.28147 29967 ft 396 kts 284°
2026-04-25 07:45 30.66844 -99.34337 29959 ft 395 kts 284°
2026-04-25 07:46 30.68175 -99.40545 29959 ft 396 kts 284°
2026-04-25 07:46 30.69496 -99.46717 29959 ft 397 kts 284°
2026-04-25 07:47 30.70824 -99.52943 29959 ft 397 kts 284°
2026-04-25 07:47 30.72150 -99.59167 29965 ft 397 kts 284°
2026-04-25 07:48 30.73459 -99.65336 29972 ft 397 kts 284°
2026-04-25 07:48 30.74775 -99.71545 29987 ft 395 kts 284°
2026-04-25 07:49 30.76088 -99.77760 29993 ft 395 kts 283°
2026-04-25 07:49 30.77395 -99.83961 29994 ft 396 kts 284°
2026-04-25 07:50 30.78699 -99.90163 29998 ft 397 kts 283°
2026-04-25 07:50 30.80004 -99.96389 29997 ft 396 kts 283°
2026-04-25 07:51 30.81302 -100.02594 29999 ft 395 kts 284°
2026-04-25 07:51 30.82598 -100.08804 30000 ft 396 kts 283°
2026-04-25 07:52 30.83885 -100.14988 29992 ft 395 kts 283°
2026-04-25 07:52 30.85177 -100.21217 29993 ft 395 kts 283°
2026-04-25 07:53 30.86458 -100.27399 29992 ft 396 kts 283°
2026-04-25 07:53 30.87736 -100.33591 29994 ft 394 kts 284°
2026-04-25 07:54 30.89010 -100.39777 29991 ft 395 kts 283°
2026-04-25 07:54 30.90285 -100.45983 29989 ft 394 kts 283°
2026-04-25 07:55 30.91554 -100.52177 29991 ft 394 kts 283°
2026-04-25 07:55 30.92812 -100.58329 29992 ft 394 kts 284°
2026-04-25 07:56 30.94081 -100.64554 29989 ft 393 kts 283°
2026-04-25 07:56 30.95331 -100.70707 30006 ft 393 kts 283°
2026-04-25 07:57 30.96589 -100.76910 30009 ft 393 kts 283°
2026-04-25 07:57 30.97845 -100.83115 30009 ft 392 kts 283°
2026-04-25 07:58 30.99087 -100.89275 30009 ft 393 kts 283°
2026-04-25 07:58 31.00329 -100.95451 30006 ft 392 kts 283°
2026-04-25 07:59 31.01564 -101.01602 30012 ft 391 kts 283°
2026-04-25 07:59 31.02796 -101.07758 30012 ft 389 kts 283°
2026-04-25 08:00 31.04019 -101.13882 30020 ft 389 kts 283°
2026-04-25 08:00 31.05237 -101.20003 30024 ft 389 kts 283°
2026-04-25 08:01 31.06460 -101.26161 30011 ft 388 kts 283°
2026-04-25 08:01 31.07667 -101.32258 30007 ft 388 kts 283°
2026-04-25 08:02 31.08878 -101.38387 30005 ft 387 kts 283°
2026-04-25 08:02 31.10083 -101.44501 30008 ft 388 kts 283°
2026-04-25 08:03 31.11282 -101.50603 30012 ft 388 kts 283°
2026-04-25 08:03 31.12482 -101.56724 30013 ft 385 kts 282°
2026-04-25 08:04 31.13676 -101.62834 30012 ft 388 kts 282°
2026-04-25 08:04 31.14857 -101.68900 30029 ft 386 kts 282°
2026-04-25 08:05 31.16052 -101.75043 30024 ft 388 kts 282°
2026-04-25 08:05 31.17234 -101.81141 30023 ft 386 kts 282°
2026-04-25 08:06 31.18409 -101.87218 30022 ft 386 kts 282°
2026-04-25 08:06 31.19578 -101.93278 30027 ft 384 kts 282°
2026-04-25 08:07 31.20748 -101.99362 30024 ft 385 kts 282°
2026-04-25 08:07 31.21912 -102.05431 30025 ft 384 kts 282°
2026-04-25 08:08 31.23073 -102.11499 30023 ft 384 kts 282°
2026-04-25 08:08 31.24228 -102.17554 30026 ft 383 kts 282°
2026-04-25 08:09 31.25387 -102.23650 30028 ft 383 kts 282°
2026-04-25 08:09 31.26540 -102.29720 30023 ft 384 kts 282°
2026-04-25 08:10 31.27685 -102.35772 30012 ft 384 kts 282°
2026-04-25 08:10 31.28838 -102.41883 30008 ft 382 kts 281°
2026-04-25 08:11 31.29973 -102.47916 30004 ft 382 kts 282°
2026-04-25 08:11 31.31114 -102.53994 30003 ft 382 kts 282°
2026-04-25 08:12 31.32248 -102.60050 30007 ft 382 kts 281°
2026-04-25 08:12 31.33379 -102.66112 30012 ft 383 kts 281°
2026-04-25 08:13 31.34508 -102.72178 30021 ft 382 kts 281°
2026-04-25 08:14 31.36184 -102.81215 30020 ft 381 kts 281°
2026-04-25 08:14 31.37309 -102.87298 30018 ft 382 kts 281°
2026-04-25 08:15 31.38421 -102.93331 30020 ft 380 kts 281°
2026-04-25 08:15 31.39528 -102.99354 30024 ft 381 kts 281°
2026-04-25 08:16 31.40636 -103.05397 30027 ft 381 kts 281°
2026-04-25 08:16 31.41743 -103.11456 30025 ft 381 kts 281°
2026-04-25 08:17 31.42844 -103.17492 30023 ft 382 kts 281°
2026-04-25 08:17 31.43947 -103.23560 30037 ft 382 kts 281°
2026-04-25 08:18 31.45047 -103.29633 30034 ft 382 kts 281°
2026-04-25 08:18 31.46144 -103.35699 30024 ft 382 kts 281°
2026-04-25 08:19 31.47239 -103.41778 30012 ft 382 kts 281°
2026-04-25 08:19 31.48330 -103.47844 29992 ft 382 kts 281°
2026-04-25 08:20 31.49415 -103.53898 30012 ft 383 kts 281°
2026-04-25 08:20 31.50497 -103.59952 30017 ft 382 kts 281°
2026-04-25 08:21 31.51585 -103.66059 30050 ft 381 kts 281°
2026-04-25 08:21 31.52666 -103.72143 30066 ft 381 kts 280°
2026-04-25 08:22 31.53738 -103.78198 30068 ft 381 kts 281°
2026-04-25 08:22 31.54814 -103.84288 30073 ft 382 kts 281°
2026-04-25 08:23 31.55884 -103.90361 30077 ft 382 kts 281°
2026-04-25 08:23 31.56955 -103.96464 30073 ft 381 kts 281°
2026-04-25 08:24 31.58018 -104.02531 30077 ft 382 kts 280°
2026-04-25 08:24 31.59080 -104.08617 30079 ft 383 kts 280°
2026-04-25 08:25 31.60141 -104.14713 30094 ft 381 kts 281°
2026-04-25 08:25 31.61199 -104.20806 30088 ft 381 kts 280°
2026-04-25 08:26 31.62254 -104.26907 30094 ft 383 kts 280°
2026-04-25 08:26 31.63304 -104.32989 30095 ft 381 kts 281°
2026-04-25 08:27 31.64351 -104.39076 30108 ft 383 kts 280°
2026-04-25 08:27 31.65393 -104.45151 30125 ft 381 kts 280°
2026-04-25 08:28 31.66435 -104.51247 30130 ft 382 kts 280°
2026-04-25 08:28 31.67469 -104.57309 30142 ft 380 kts 280°
2026-04-25 08:29 31.68501 -104.63385 30145 ft 381 kts 280°
2026-04-25 08:29 31.69528 -104.69443 30158 ft 380 kts 279°
2026-04-25 08:30 31.70558 -104.75539 30172 ft 380 kts 280°
2026-04-25 08:30 31.71581 -104.81612 30173 ft 380 kts 280°
2026-04-25 08:31 31.72598 -104.87669 30170 ft 381 kts 279°
2026-04-25 08:31 31.73614 -104.93738 30150 ft 381 kts 280°
2026-04-25 08:32 31.74629 -104.99820 30132 ft 380 kts 279°
2026-04-25 08:32 31.75645 -105.05925 30137 ft 379 kts 280°
2026-04-25 08:33 31.76648 -105.11972 30139 ft 381 kts 279°
2026-04-25 08:33 31.77659 -105.18089 30145 ft 381 kts 279°
2026-04-25 08:34 31.78657 -105.24139 30149 ft 381 kts 280°
2026-04-25 08:34 31.79663 -105.30266 30154 ft 381 kts 280°
2026-04-25 08:35 31.80656 -105.36325 30162 ft 380 kts 279°
2026-04-25 08:35 31.81651 -105.42420 30165 ft 379 kts 279°
2026-04-25 08:36 31.82643 -105.48508 30180 ft 379 kts 279°
2026-04-25 08:36 31.83627 -105.54575 30178 ft 378 kts 279°
2026-04-25 08:37 31.84606 -105.60626 30184 ft 378 kts 279°
2026-04-25 08:37 31.85583 -105.66682 30207 ft 378 kts 278°
2026-04-25 08:38 31.86564 -105.72780 30212 ft 378 kts 279°
2026-04-25 08:38 31.87531 -105.78814 30206 ft 378 kts 278°
2026-04-25 08:39 31.88502 -105.84893 30202 ft 378 kts 278°
2026-04-25 08:39 31.89468 -105.90960 30203 ft 379 kts 279°
2026-04-25 08:40 31.90432 -105.97029 30199 ft 378 kts 278°
2026-04-25 08:40 31.91392 -106.03098 30190 ft 380 kts 278°
2026-04-25 08:41 31.92354 -106.09195 30168 ft 379 kts 279°
2026-04-25 08:41 31.93316 -106.15315 30159 ft 380 kts 278°
2026-04-25 08:42 31.94270 -106.21401 30141 ft 380 kts 278°
2026-04-25 08:42 31.95158 -106.27487 30131 ft 379 kts 274°
2026-04-25 08:43 31.95646 -106.33682 30133 ft 380 kts 274°
2026-04-25 08:43 31.96100 -106.39856 30139 ft 381 kts 274°
2026-04-25 08:44 31.96545 -106.46011 30144 ft 378 kts 274°
2026-04-25 08:44 31.96989 -106.52196 30147 ft 382 kts 274°
2026-04-25 08:45 31.97432 -106.58409 30137 ft 379 kts 274°
2026-04-25 08:45 31.97868 -106.64568 30131 ft 380 kts 274°
2026-04-25 08:46 31.98303 -106.70765 30143 ft 379 kts 273°
2026-04-25 08:46 31.98732 -106.76920 30143 ft 382 kts 274°
2026-04-25 08:47 31.99163 -106.83141 30150 ft 382 kts 274°
2026-04-25 08:47 31.99590 -106.89345 30165 ft 379 kts 273°
2026-04-25 08:48 32.00013 -106.95534 30163 ft 381 kts 273°
2026-04-25 08:48 32.00433 -107.01733 30147 ft 380 kts 274°
2026-04-25 08:49 32.00850 -107.07922 30150 ft 381 kts 273°
2026-04-25 08:49 32.01263 -107.14128 30156 ft 381 kts 274°
2026-04-25 08:50 32.01677 -107.20351 30156 ft 380 kts 274°
2026-04-25 08:50 32.02061 -107.26541 30165 ft 380 kts 274°
2026-04-25 08:51 32.02451 -107.32735 30151 ft 380 kts 274°
2026-04-25 08:51 32.02867 -107.38924 30152 ft 382 kts 274°
2026-04-25 08:52 32.03276 -107.45148 30150 ft 380 kts 273°
2026-04-25 08:52 32.03710 -107.51355 30149 ft 380 kts 274°
2026-04-25 08:53 32.03763 -107.57532 30150 ft 382 kts 262°
2026-04-25 08:53 32.03152 -107.63686 30156 ft 382 kts 272°
2026-04-25 08:54 32.03546 -107.69911 30157 ft 380 kts 273°
2026-04-25 08:54 32.03977 -107.76086 30155 ft 382 kts 274°
2026-04-25 08:55 32.04416 -107.82331 30156 ft 381 kts 273°
2026-04-25 08:55 32.04846 -107.88533 30159 ft 381 kts 273°
2026-04-25 08:56 32.05269 -107.94697 30164 ft 380 kts 273°
2026-04-25 08:56 32.05696 -108.00938 30177 ft 380 kts 274°
2026-04-25 08:57 32.06116 -108.07135 30187 ft 382 kts 274°
2026-04-25 08:57 32.06533 -108.13333 30190 ft 380 kts 273°
2026-04-25 08:58 32.06946 -108.19507 30195 ft 379 kts 273°
2026-04-25 08:58 32.07357 -108.25706 30196 ft 380 kts 273°
2026-04-25 08:59 32.07763 -108.31877 30190 ft 380 kts 273°
2026-04-25 08:59 32.08167 -108.38067 30184 ft 381 kts 273°
2026-04-25 09:00 32.08567 -108.44232 30186 ft 379 kts 273°
2026-04-25 09:00 32.08964 -108.50408 30172 ft 380 kts 273°
2026-04-25 09:01 32.09360 -108.56592 30170 ft 380 kts 273°
2026-04-25 09:01 32.09752 -108.62782 30166 ft 380 kts 273°
2026-04-25 09:02 32.10141 -108.68967 30184 ft 378 kts 272°
2026-04-25 09:02 32.10526 -108.75152 30178 ft 380 kts 272°
2026-04-25 09:03 32.10912 -108.81371 30182 ft 378 kts 272°
2026-04-25 09:03 32.11288 -108.87508 30190 ft 375 kts 272°
2026-04-25 09:04 32.11662 -108.93642 30189 ft 372 kts 272°
2026-04-25 09:04 32.12024 -108.99622 30185 ft 363 kts 272°
2026-04-25 09:05 32.12376 -109.05515 30186 ft 363 kts 272°
2026-04-25 09:05 32.12732 -109.11488 29245 ft 368 kts 272°
2026-04-25 09:05 32.12905 -109.14412 28858 ft 355 kts 272°
2026-04-25 09:06 32.13077 -109.17334 28453 ft 354 kts 272°
2026-04-25 09:06 32.13245 -109.20194 28070 ft 355 kts 272°
2026-04-25 09:06 32.13416 -109.23122 27670 ft 354 kts 272°
2026-04-25 09:06 32.13593 -109.25983 27284 ft 356 kts 275°
2026-04-25 09:07 32.14043 -109.28856 26898 ft 355 kts 279°
2026-04-25 09:07 32.14547 -109.31707 26498 ft 356 kts 279°
2026-04-25 09:07 32.15037 -109.34518 26110 ft 354 kts 279°
2026-04-25 09:07 32.15531 -109.37363 25717 ft 354 kts 279°
2026-04-25 09:08 32.16024 -109.40208 25324 ft 352 kts 279°
2026-04-25 09:08 32.16512 -109.43031 24934 ft 352 kts 280°
2026-04-25 09:08 32.16990 -109.45806 24554 ft 350 kts 279°
2026-04-25 09:08 32.17474 -109.48614 24166 ft 349 kts 279°
2026-04-25 09:09 32.17954 -109.51406 23778 ft 348 kts 280°
2026-04-25 09:09 32.18433 -109.54197 23394 ft 347 kts 280°
2026-04-25 09:09 32.18909 -109.56971 23013 ft 347 kts 280°
2026-04-25 09:09 32.19386 -109.59753 22624 ft 346 kts 280°
2026-04-25 09:10 32.19857 -109.62504 22245 ft 344 kts 280°
2026-04-25 09:10 32.20330 -109.65276 21867 ft 344 kts 279°
2026-04-25 09:10 32.20800 -109.68031 21501 ft 340 kts 279°
2026-04-25 09:10 32.21151 -109.70746 21112 ft 337 kts 268°
2026-04-25 09:11 32.20756 -109.76234 21141 ft 338 kts 264°
2026-04-25 09:11 32.20529 -109.79012 21149 ft 337 kts 264°
2026-04-25 09:11 32.20305 -109.81731 21063 ft 340 kts 264°
2026-04-25 09:12 32.20074 -109.84502 20727 ft 338 kts 264°
2026-04-25 09:12 32.19844 -109.87257 20365 ft 337 kts 264°
2026-04-25 09:12 32.19615 -109.89992 19996 ft 335 kts 264°
2026-04-25 09:12 32.19388 -109.92698 19632 ft 334 kts 264°
2026-04-25 09:13 32.19159 -109.95428 19265 ft 332 kts 264°
2026-04-25 09:13 32.18930 -109.98141 18896 ft 331 kts 264°
2026-04-25 09:13 32.18705 -110.00797 18544 ft 330 kts 264°
2026-04-25 09:13 32.18478 -110.03481 18177 ft 328 kts 264°
2026-04-25 09:14 32.18250 -110.06155 17739 ft 327 kts 263°
2026-04-25 09:14 32.18024 -110.08809 17362 ft 326 kts 264°
2026-04-25 09:14 32.17797 -110.11467 16996 ft 325 kts 263°
2026-04-25 09:14 32.17570 -110.14115 16635 ft 323 kts 263°
2026-04-25 09:15 32.17347 -110.16718 16281 ft 322 kts 263°
2026-04-25 09:15 32.17120 -110.19353 15920 ft 321 kts 263°
2026-04-25 09:15 32.16894 -110.21966 15566 ft 320 kts 263°
2026-04-25 09:15 32.16671 -110.24541 15214 ft 320 kts 263°
2026-04-25 09:16 32.16445 -110.27151 14859 ft 318 kts 263°
2026-04-25 09:16 32.16221 -110.29733 14510 ft 317 kts 263°
2026-04-25 09:16 32.15995 -110.32323 14170 ft 317 kts 264°
2026-04-25 09:16 32.16036 -110.34903 14093 ft 316 kts 272°
2026-04-25 09:17 32.16330 -110.40086 14075 ft 318 kts 272°
2026-04-25 09:17 32.16477 -110.42672 14077 ft 320 kts 272°
2026-04-25 09:17 32.16626 -110.45301 14073 ft 318 kts 272°
2026-04-25 09:18 32.16771 -110.47871 14076 ft 317 kts 272°
2026-04-25 09:18 32.16919 -110.50497 14076 ft 319 kts 272°
2026-04-25 09:18 32.17063 -110.53072 14068 ft 319 kts 272°
2026-04-25 09:18 32.17209 -110.55686 14055 ft 318 kts 272°
2026-04-25 09:19 32.17353 -110.58269 14053 ft 318 kts 272°
2026-04-25 09:19 32.17497 -110.60882 14040 ft 318 kts 272°
2026-04-25 09:19 32.17641 -110.63496 14026 ft 316 kts 272°
2026-04-25 09:19 32.17783 -110.66077 14024 ft 317 kts 271°
2026-04-25 09:20 32.17924 -110.68636 14019 ft 311 kts 271°
2026-04-25 09:20 32.18060 -110.71127 13516 ft 302 kts 271°
2026-04-25 09:20 32.18194 -110.73603 12656 ft 306 kts 272°
2026-04-25 09:20 32.18329 -110.76109 11745 ft 311 kts 272°
2026-04-25 09:21 32.18466 -110.78632 11111 ft 304 kts 272°
2026-04-25 09:21 32.18594 -110.81012 11040 ft 281 kts 272°
2026-04-25 09:21 32.18714 -110.83237 10912 ft 264 kts 272°
2026-04-25 09:21 32.18953 -110.85347 10527 ft 261 kts 289°
2026-04-25 09:22 32.19993 -110.87092 9970 ft 268 kts 310°
2026-04-25 09:22 32.21346 -110.88695 9484 ft 277 kts 311°
2026-04-25 09:22 32.22702 -110.90292 8989 ft 277 kts 311°
2026-04-25 09:22 32.24066 -110.91896 8483 ft 276 kts 311°
2026-04-25 09:23 32.25412 -110.93484 8015 ft 272 kts 311°
2026-04-25 09:23 32.26716 -110.95025 7751 ft 265 kts 311°
2026-04-25 09:23 32.28027 -110.96571 7488 ft 263 kts 311°
2026-04-25 09:23 32.29313 -110.98076 7212 ft 255 kts 311°
2026-04-25 09:24 32.30557 -110.99524 6938 ft 248 kts 311°
2026-04-25 09:24 32.31755 -111.00909 6740 ft 236 kts 311°
2026-04-25 09:24 32.32916 -111.02238 6478 ft 229 kts 311°
2026-04-25 09:24 32.34034 -111.03519 6205 ft 223 kts 311°
2026-04-25 09:25 32.35067 -111.04832 6007 ft 212 kts 294°
2026-04-25 09:25 32.35235 -111.06486 6034 ft 203 kts 250°
2026-04-25 09:25 32.34378 -111.07760 6043 ft 207 kts 214°
2026-04-25 09:25 32.33116 -111.08590 6024 ft 207 kts 209°
2026-04-25 09:26 32.31779 -111.09224 5993 ft 211 kts 187°
2026-04-25 09:26 32.30298 -111.09183 6016 ft 212 kts 180°
2026-04-25 09:26 32.28837 -111.09063 6006 ft 211 kts 179°
2026-04-25 09:26 32.27373 -111.08941 6005 ft 212 kts 179°
2026-04-25 09:27 32.25979 -111.08330 6012 ft 220 kts 147°
2026-04-25 09:27 32.24804 -111.07178 6087 ft 219 kts 144°
2026-04-25 09:27 32.23665 -111.06068 5991 ft 207 kts 146°
2026-04-25 09:27 32.22542 -111.05016 5681 ft 204 kts 147°
2026-04-25 09:28 32.21415 -111.04034 5357 ft 200 kts 149°
2026-04-25 09:28 32.20278 -111.03125 4995 ft 190 kts 150°
2026-04-25 09:28 32.19224 -111.02293 4663 ft 176 kts 148°
2026-04-25 09:28 32.18312 -111.01482 4551 ft 157 kts 147°
2026-04-25 09:29 32.17478 -111.00710 4246 ft 151 kts 144°
2026-04-25 09:29 32.16702 -110.99892 3899 ft 146 kts 138°
2026-04-25 09:29 32.16016 -110.99065 3642 ft 137 kts 138°
2026-04-25 09:29 32.15365 -110.98312 3450 ft 129 kts 140°
2026-04-25 09:30 32.14713 -110.97569 3254 ft 130 kts 137°
2026-04-25 09:30 32.14075 -110.96822 3074 ft 130 kts 139°
2026-04-25 09:30 32.13431 -110.96066 2928 ft 131 kts 137°
2026-04-25 09:30 32.12780 -110.95305 2750 ft 131 kts 139°
2026-04-25 09:31 32.12139 -110.94559 2600 ft 129 kts 137°
2026-04-25 09:31 32.11576 -110.93899 2608 ft 89 kts 135°
2026-04-25 09:31 32.11257 -110.93524 2619 ft 45 kts 135°
2026-04-25 09:31 32.11132 -110.93347 2624 ft 20 kts 107°
2026-04-25 09:32 32.11138 -110.93232 2624 ft 8 kts 61°
2026-04-25 09:32 32.11163 -110.93205 2624 ft 5 kts 27°
2026-04-25 09:32 32.11203 -110.93217 2623 ft 7 kts 315°
2026-04-25 09:32 32.11249 -110.93272 2622 ft 11 kts 315°
2026-04-25 09:33 32.11309 -110.93341 2621 ft 13 kts 315°
2026-04-25 09:33 32.11381 -110.93426 2619 ft 15 kts 314°
2026-04-25 09:33 32.11465 -110.93526 2617 ft 18 kts 315°
2026-04-25 09:33 32.11561 -110.93638 2613 ft 21 kts 315°
2026-04-25 09:34 32.11656 -110.93748 2609 ft 12 kts 315°
2026-04-25 09:34 32.11710 -110.93813 2607 ft 9 kts 316°
2026-04-25 09:34 32.11768 -110.93794 2606 ft 10 kts 56°
2026-04-25 09:34 32.11763 -110.93742 2608 ft 5 kts 125°
2026-04-25 09:35 32.11742 -110.93708 2609 ft 4 kts 113°
2026-04-25 09:35 32.11751 -110.93664 2609 ft 7 kts 46°
2026-04-25 09:35 32.11801 -110.93605 2608 ft 12 kts 45°
2026-04-25 09:35 32.11871 -110.93539 2607 ft 12 kts
2026-04-25 09:36 32.11933 -110.93591 2606 ft 7 kts 316°
2026-04-25 09:36 32.11946 -110.93616 2605 ft 1 kts 253°
2026-04-25 09:36 32.11942 -110.93631 2605 ft 2 kts 255°
2026-04-25 09:36 32.11938 -110.93649 2606 ft 2 kts 255°
2026-04-25 09:37 32.11933 -110.93668 2606 ft 1 kts 255°
2026-04-25 09:37 32.11932 -110.93674 2606 ft 0 kts 255°